Погода в Краснопавловке

Украина / Харьковская область     49°08′14″N   36°19′28″E
темп.,
°C
ветер,
м/с
пор.,
м/с
влажн.,
%
обл.,
%
осадки,
мм/ч
давл.,
гПа
погр.,
м
21 января, пт
пт2123:00−5ю71588100 0.1 1012420
02:00−2ю71596100 0.4 1008565
05:000ююз61298100 1.3 1005724
08:00−3юз51096100 1.5 1006337
11:00−2зюз61097100 0.4 1007751
14:00−2зюз711845 0.9 1008744
17:00−5юз6138951 0.0 1009382
20:00−6юз613917 0.0 1009352
22 января, сб
сб2223:00−7юз511937 0.0 1010255
02:00−9юз4109643 0.0 1009168
05:00−8ююз5109781 0.0 1010210
08:00−9ююз4109795 0.1 1011213
11:00−5ююз5995100 0.0 1012407
14:00−3юз589399 0.1 1012668
17:00−6ююз379774 0.1 101497
20:00−9ююз229985 0.1 101536
23 января, вс
вс2323:00−11ююз229973 0.0 101610
02:00−12ю119864 0.0 101710
05:00−13вюв119794 0.0 10189
08:00−11всв2297100 0.0 102023
11:00−6св4691100 0.0 1021195
14:00−5св5993100 0.0 1021413
17:00−6ссв51194100 0.0 1023321
20:00−7ссв61293100 0.0 1023333
24 января, пн
пн2423:00−6с71595100 0.3 1022504
02:00−6ссв71495100 1.3 1021506
05:00−5ссв71395100 0.5 1021443
08:00−4св6119498 0.9 1023410
11:00−4св61094100 0.1 1024395
14:00−4св61094100 0.2 1024396
17:00−5св51095100 0.1 1026339
20:00−6св51096100 0.1 1026293
25 января, вт
вт2523:00−6св4896100 1.2 1026300
02:00−7св3796100 1.9 1025172
05:00−6ссв3596100 0.5 1024210
08:00−6св2496100 0.9 1025189
11:00−5всв1292100 0.4 1024213
14:00−4з0191100 0.4 1023239
17:00−6зюз1198100 0.1 102310
20:00−7юз2398100 0.1 102349